Hourly Weather Roundup
Issued by NWS Central Illinois

Home | Current Version | Previous Version | Text Only | Print | Product List | Glossary On
Versions: 1 2 3 4 5 6 7 8 9 10 11 12 13 14 15 16 17 18 19 20 21 22 23 24 25 26 27 28 29 30 31 32 33 34 35 36 37 38 39 40 41 42 43 44 45 46 47 48 49 50
000
NZUS43 KILX 271910
HWRILX

AREA WEATHER ROUNDUP
NATIONAL WEATHER SERVICE, LINCOLN IL
100 PM CST MON FEB 27 2017


CITY           SKY/WX    TMP DP  RH WIND       PRES   REMARKS
BLOOMINGTON    PTSUNNY   54  35  48 SW12      30.10F
CHAMPAIGN      PTSUNNY   57  36  45 S12G21    30.11F
DECATUR        PTSUNNY   56  36  47 S10       30.10F
EFFINGHAM      CLOUDY    58  43  58 S6        30.12F
FLORA          PTSUNNY   57  44  61 SE7       30.13F
GALESBURG      SUNNY     53  35  48 S10       30.07F
JACKSONVILLE   SUNNY     57  35  44 SW9G16    30.08F
LACON          MOSUNNY   53  33  45 S8        30.09F
LAWRENCEVILLE  PTSUNNY   56  44  64 S10       30.15F
LITCHFIELD     SUNNY     56  40  53 S9        30.08F
$$


CITY           SKY/WX    TMP DP  RH WIND       PRES   REMARKS
LINCOLN        CLOUDY    57  39  51 SW5       30.09F
MACOMB         SUNNY     55  33  44 S10G17    30.10F
MATTOON        PTSUNNY   55  41  59 S10       30.11F
MT CARMEL AP   CLOUDY    54  43  65 S13       30.14F
OLNEY-NOBLE AP CLOUDY    54  45  71 S7        30.13F
PARIS          PTSUNNY   55  39  54 S10G16    30.13F
PEORIA         SUNNY     55  34  45 S13G21    30.09F
PONTIAC        PTSUNNY   54  33  44 SW9       30.12F
RANTOUL        PTSUNNY   56  37  48 S10       30.11F
SPRINGFIELD    MOSUNNY   60  37  42 S13G21    30.09F
TAYLORVILLE    PTSUNNY   57  38  49 SW10      30.10F
$$

...REGIONAL REPORTS...


CITY           SKY/WX    TMP DP  RH WIND       PRES   REMARKS
CHICAGO O`HARE PTSUNNY   50  34  54 SW13G20   30.12F
KANKAKEE       MOSUNNY   53  33  46 SW8       30.13F
MOLINE         SUNNY     53  34  48 S12       30.06F
MOUNT STERLING SUNNY     56  33  40 S12G17    30.06F
MOUNT VERNON   CLOUDY    58  44  60 SE6       30.11F
PITTSFIELD     SUNNY     58  36  44 S12G17    30.08F
QUINCY         SUNNY     55  33  43 S7        30.05F
ROCKFORD       MOSUNNY   51  35  54 S14       30.11F
$$


CITY           SKY/WX    TMP DP  RH WIND       PRES   REMARKS
BURLINGTON     SUNNY     55  34  45 S9G17     30.05F
CEDAR RAPIDS   SUNNY     51  33  50 S14G22    30.02F
DES MOINES     CLOUDY    54  29  38 S13       29.98F
KIRKSVILLE     MOSUNNY   57  25  29 SW10G17   30.02F
OTTUMWA        SUNNY     54  29  38 S15G26    30.01F
ST LOUIS       MOSUNNY   62  37  39 VRB6      30.07F
$$


CITY           SKY/WX    TMP DP  RH WIND       PRES   REMARKS
TERRE HAUTE    CLOUDY    55  38  52 SE15      30.13F
EVANSVILLE     CLOUDY    54  45  71 SE5       30.15F
INDIANAPOLIS   PTSUNNY   52  37  56 SE13      30.16F
LAFAYETTE      PTSUNNY   52  35  52 SW8       30.14F
MADISON        PTSUNNY   43  30  60 S12       30.07F
MILWAUKEE      PTSUNNY   46  31  55 SE8       30.12F
$$






USA.gov is the U.S. government's official web portal to all federal, state and local government web resources and services.